Home   Weather   Lewiston   Past weeks

Flag for USA Past Weather in Lewiston, Idaho, USA — Yesterday and Last 2 Weeks

55 °F

Mostly cloudy.

Feels Like: 55 °F
Forecast: 53 / 64 °F
Wind: 3 mph from Southwest

Location: Lewiston-Nez Perce County Airport

Current Time: Oct 25, 2016 at 7:19:38 PM

Latest Report: Oct 25, 2016 at 6:56 PM

Visibility: 10 mi

Pressure: 30.06 "Hg

Humidity: 77%

Dew Point: 48 °F

Location of LewistonLocation

Past Weather in Lewiston — Graph


Lewiston Temperature Yesterday

Maximum temperature yesterday: 65 °F (at 2:56 PM)
Minimum temperature yesterday: 48 °F (at 12:56 AM)
Average temperature yesterday: 56 °F

High & Low Weather Summary for the Past Weeks

High66 °F (Oct 14, 2:56 PM)100% (Oct 22, 12:56 AM)30.42 "Hg (Oct 22, 12:56 AM)
Low35 °F (Oct 12, 5:56 AM)31% (Oct 12, 4:56 PM)29.38 "Hg (Oct 16, 10:56 PM)
Average52 °F70%29.92 "Hg
* Reported Oct 10 5:56 PM — Oct 25 5:56 PM, Lewiston, Weather by CustomWeather, © 2016

Note: Actual official high and low records may vary slightly from our data, if they occured in-between our weather recording intervals... More about our weather records


Lewiston Weather History for the Previous 24 Hours

Scroll right to see more
Time TempWeatherWind HumidityBarometerVisibility
5:56 PM
Tue, Oct 25
55 °FClear.No wind80%30.05 "Hg10 mi
4:56 PM57 °FPartly sunny.6 mph72%30.05 "Hg10 mi
3:56 PM57 °FLight rain. Cloudy.7 mph72%30.05 "Hg5 mi
2:56 PM58 °FPassing clouds.5 mph67%30.06 "Hg10 mi
1:56 PM59 °FMostly cloudy.6 mph64%30.05 "Hg10 mi
12:56 PM58 °FPassing clouds.5 mph70%30.06 "Hg10 mi
11:56 AM57 °FOvercast.3 mph78%30.07 "Hg10 mi
10:56 AM55 °FMostly cloudy.No wind80%30.06 "Hg10 mi
9:56 AM55 °FPassing clouds.No wind80%30.05 "Hg10 mi
8:56 AM52 °FOvercast.No wind93%30.04 "Hg10 mi
7:56 AM51 °FOvercast.No wind89%30.02 "Hg10 mi
6:56 AM51 °FOvercast.3 mph89%29.99 "Hg10 mi
5:56 AM51 °FLight rain. Overcast.7 mph89%29.96 "Hg10 mi
4:56 AM51 °FMostly cloudy.3 mph89%29.96 "Hg10 mi
3:56 AM52 °FOvercast.3 mph83%29.93 "Hg10 mi
2:56 AM55 °FLight rain. Overcast.17 mph77%29.90 "Hg9 mi
1:56 AM57 °FLight rain. Partly cloudy.14 mph69%29.86 "Hg10 mi
12:56 AM57 °FMostly cloudy.3 mph67%29.82 "Hg10 mi
11:56 PM
Mon, Oct 24
57 °FPassing clouds.5 mph67%29.78 "Hg10 mi
10:56 PM59 °FPassing clouds.6 mph60%29.76 "Hg10 mi
9:56 PM59 °FClear.10 mph60%29.75 "Hg10 mi
8:56 PM60 °FClear.12 mph56%29.75 "Hg10 mi
7:56 PM58 °FClear.6 mph60%29.75 "Hg10 mi
Weather by CustomWeather, © 2016

See weather overviewHow to use our weather pages